Date String (YYYY-MM-DD hh:mm:ss) UTC,Instrument flags,absolute air pressure of the measurement (hPa),sample flow rate (lpm),inlet stack bypass flow (lpm),air temperature of the measurement (°C),ambient temperature measured by the external sensor (°C),aerosol sample conditioner tube jacket temperature (°C),OPC LED temperature (°C),internal box temperature (°C),relative humidity of the measurement (%),span deviation,mass concentration of particles derived from Lorenz-Mie calculation of OPC scattering (μg/m³),mass concentration of particles derived from Lorenz-Mie calculation of OPC scattering (μg/m³),mass concentration of particles derived from Lorenz-Mie calculation of OPC scattering (μg/m³)
DateTimeUTC,F1_M11,P_M11,Q1_M11,Q2_M11,T1_M11,T2_M11,T3_M11,T4_M11,T5_M11,U1_M11,ZSPAN_M11,X2_M11,X0_M11,X1_M11
2024-01-19 16:00:00,SystemResetWarning,0835.9,5.00,000.00,018.8,018.1,000.0,027.2,020.0,10.9,0001.2,0008.70,0013.02,0008.15
2024-01-19 16:01:00,SystemResetWarning,0836.0,5.00,000.00,018.8,018.1,000.0,027.2,020.0,10.9,0002.0,0008.72,0013.03,0008.16
2024-01-19 16:02:00,SystemResetWarning,0836.0,5.00,000.00,018.8,018.1,000.0,027.2,020.0,10.9,0002.4,0008.72,0013.27,0008.17
2024-01-19 16:03:00,SystemResetWarning,0836.0,5.00,000.00,018.8,018.1,000.0,027.2,020.0,10.9,0002.6,0008.69,0012.87,0008.18
2024-01-19 16:04:00,SystemResetWarning,0836.0,5.00,000.00,018.8,018.1,000.0,027.2,020.0,11.0,0002.6,0008.69,0012.95,0008.20
2024-01-19 16:05:00,SystemResetWarning,0836.0,4.99,000.00,018.8,018.0,000.0,027.2,020.0,11.1,0002.8,0008.71,0012.97,0008.22
2024-01-19 16:06:00,SystemResetWarning,0836.0,5.00,000.00,018.8,018.0,000.0,027.2,020.0,11.0,0002.6,0008.73,0012.91,0008.23
2024-01-19 16:07:00,SystemResetWarning,0836.1,5.00,000.00,018.8,018.0,000.0,027.2,020.0,11.0,0002.1,0008.75,0013.19,0008.24
2024-01-19 16:08:00,SystemResetWarning,0836.1,5.00,000.00,018.8,018.0,000.0,027.2,020.0,11.1,0001.9,0008.79,0013.99,0008.27
2024-01-19 16:09:00,SystemResetWarning,0836.1,5.00,000.00,018.8,018.0,000.0,027.2,020.0,11.1,0001.8,0008.81,0014.26,0008.30
2024-01-19 16:10:00,SystemResetWarning,0836.1,4.99,000.00,018.8,018.0,000.0,027.2,020.0,11.0,0001.4,0008.87,0014.19,0008.34
2024-01-19 16:11:00,SystemResetWarning,0836.1,5.00,000.00,018.8,018.0,000.0,027.2,020.0,11.0,0001.7,0008.98,0014.50,0008.40
2024-01-19 16:12:00,SystemResetWarning,0836.0,5.00,000.00,018.8,018.0,000.0,027.2,020.0,11.1,0001.5,0009.08,0014.71,0008.45
2024-01-19 16:13:00,SystemResetWarning,0835.9,5.00,000.00,018.8,018.0,000.0,027.2,020.0,11.0,0001.5,0009.16,0014.84,0008.48
2024-01-19 16:14:00,SystemResetWarning,0836.0,5.01,000.00,018.8,018.0,000.0,027.2,020.0,10.9,0001.2,0009.26,0015.17,0008.53
2024-01-19 16:15:00,SystemResetWarning,0835.9,5.01,000.00,018.8,018.0,000.0,027.2,020.0,11.0,0000.9,0009.34,0015.75,0008.59
2024-01-19 16:16:00,SystemResetWarning,0835.9,5.00,000.00,018.8,018.0,000.0,027.1,020.0,11.0,0001.0,0009.42,0015.80,0008.63
2024-01-19 16:17:00,SystemResetWarning,0835.9,5.00,000.00,018.8,018.0,000.0,027.1,020.0,11.0,0001.4,0009.48,0015.93,0008.67
2024-01-19 16:18:00,SystemResetWarning,0835.9,5.00,000.00,018.8,018.0,000.0,027.1,020.0,11.0,0001.8,0009.49,0015.82,0008.70
2024-01-19 16:19:00,SystemResetWarning,0835.9,5.00,000.00,018.7,018.0,000.0,027.1,020.0,11.0,0002.2,0009.51,0015.23,0008.72
2024-01-19 16:20:00,SystemResetWarning,0836.0,5.00,000.00,018.7,018.0,000.0,027.1,020.0,11.0,0002.5,0009.56,0014.49,0008.75
2024-01-19 16:21:00,SystemResetWarning,0835.9,4.99,000.00,018.7,018.0,000.0,027.1,020.0,11.0,0003.0,0009.57,0014.26,0008.76
2024-01-19 16:22:00,SystemResetWarning,0835.9,4.99,000.00,018.7,018.0,000.0,027.1,020.0,11.0,0003.3,0009.58,0014.06,0008.78
2024-01-19 16:23:00,SystemResetWarning,0835.9,4.99,000.00,018.7,018.0,000.0,027.1,020.0,11.1,0002.9,0009.56,0014.78,0008.78
2024-01-19 16:24:00,SystemResetWarning,0835.9,5.00,000.00,018.7,018.0,000.0,027.1,020.0,11.1,0002.9,0009.53,0014.73,0008.78
2024-01-19 16:25:00,SystemResetWarning,0835.9,5.00,000.00,018.7,018.0,000.0,027.1,020.0,11.0,0002.9,0009.60,0014.52,0008.82
2024-01-19 16:26:00,SystemResetWarning,0835.9,5.00,000.00,018.7,018.0,000.0,027.1,020.0,11.0,0002.8,0009.69,0014.31,0008.84
2024-01-19 16:27:00,SystemResetWarning,0835.9,5.00,000.00,018.7,018.0,000.0,027.1,020.0,11.0,0002.8,0009.72,0014.46,0008.85
2024-01-19 16:28:00,SystemResetWarning,0835.9,5.00,000.00,018.7,018.0,000.0,027.1,020.0,11.0,0003.0,0009.81,0014.56,0008.87
2024-01-19 16:29:00,SystemResetWarning,0835.9,5.00,000.00,018.7,018.0,000.0,027.1,020.0,11.0,0003.1,0009.93,0014.73,0008.92
2024-01-19 16:30:00,SystemResetWarning,0835.9,5.00,000.00,018.7,018.0,000.0,027.1,020.0,11.1,0003.0,0009.97,0014.77,0008.96
2024-01-19 16:31:00,SystemResetWarning,0835.9,5.00,000.00,018.7,018.0,000.0,027.1,020.0,11.2,0003.3,0010.00,0014.79,0008.99
2024-01-19 16:32:00,SystemResetWarning,0835.9,4.99,000.00,018.7,018.0,000.0,027.1,020.0,11.3,0003.0,0010.07,0014.97,0009.02
2024-01-19 16:33:00,SystemResetWarning,0835.9,4.99,000.00,018.7,018.0,000.0,027.1,020.0,11.1,0003.0,0010.09,0014.92,0009.05
2024-01-19 16:34:00,SystemResetWarning,0836.0,5.00,000.00,018.7,018.0,000.0,027.1,020.0,11.1,0003.3,0010.13,0014.24,0009.07
2024-01-19 16:35:00,SystemResetWarning,0836.0,5.00,000.00,018.7,018.0,000.0,027.1,020.0,11.3,0003.3,0010.16,0014.19,0009.08
2024-01-19 16:36:00,SystemResetWarning,0835.9,5.00,000.00,018.7,018.0,000.0,027.1,020.0,11.3,0003.3,0010.08,0013.99,0009.03
2024-01-19 16:37:00,SystemResetWarning,0835.9,5.01,000.00,018.7,018.0,000.0,027.1,020.0,11.2,0003.3,0009.98,0013.69,0009.01
2024-01-19 16:38:00,SystemResetWarning,0835.9,5.01,000.00,018.7,018.0,000.0,027.1,020.0,11.1,0003.2,0009.98,0013.58,0009.01
2024-01-19 16:39:00,SystemResetWarning,0835.9,4.99,000.00,018.7,018.0,000.0,027.1,020.0,11.0,0003.1,0009.86,0013.40,0008.99
2024-01-19 16:40:00,SystemResetWarning,0836.0,5.00,000.00,018.7,018.0,000.0,027.1,020.0,11.1,0002.9,0009.81,0013.29,0008.97
2024-01-19 16:41:00,SystemResetWarning,0835.9,4.99,000.00,018.7,018.0,000.0,027.1,020.0,11.1,0002.8,0009.78,0013.48,0008.96
2024-01-19 16:42:00,SystemResetWarning,0835.9,4.99,000.00,018.7,018.0,000.0,027.1,020.0,11.1,0002.6,0009.74,0013.66,0008.94
2024-01-19 16:43:00,SystemResetWarning,0836.0,5.00,000.00,018.7,018.0,000.0,027.1,020.0,11.1,0003.0,0009.69,0014.04,0008.95
2024-01-19 16:44:00,SystemResetWarning,0835.9,5.00,000.00,018.7,018.0,000.0,027.1,020.0,11.1,0003.0,0009.69,0014.04,0008.94
2024-01-19 16:45:00,SystemResetWarning,0835.9,5.00,000.00,018.7,018.0,000.0,027.1,020.0,11.1,0002.5,0009.67,0014.00,0008.93
2024-01-19 16:46:00,SystemResetWarning,0835.9,5.00,000.00,018.7,018.0,000.0,027.1,020.0,11.1,0002.3,0009.68,0014.13,0008.95
2024-01-19 16:47:00,SystemResetWarning,0835.9,5.01,000.00,018.7,018.0,000.0,027.1,020.0,11.1,0002.2,0009.72,0014.55,0008.98
2024-01-19 16:48:00,SystemResetWarning,0835.9,5.01,000.00,018.7,018.0,000.0,027.1,020.0,11.2,0002.5,0009.75,0015.10,0008.98
2024-01-19 16:49:00,SystemResetWarning,0836.0,5.00,000.00,018.7,018.0,000.0,027.1,020.0,11.3,0002.7,0009.73,0015.27,0008.98
2024-01-19 16:50:00,SystemResetWarning,0836.1,4.99,000.00,018.7,018.0,000.0,027.1,020.0,11.3,0002.6,0009.79,0015.83,0009.01
2024-01-19 16:51:00,SystemResetWarning,0836.1,4.99,000.00,018.7,018.0,000.0,027.1,020.0,11.3,0002.6,0009.83,0016.17,0009.03
2024-01-19 16:52:00,SystemResetWarning,0836.1,5.00,000.00,018.7,018.0,000.0,027.1,020.0,11.4,0002.7,0009.90,0016.13,0009.05
2024-01-19 16:53:00,SystemResetWarning,0836.1,5.00,000.00,018.7,018.0,000.0,027.1,020.0,11.4,0002.9,0009.95,0016.12,0009.05
2024-01-19 16:54:00,SystemResetWarning,0836.1,5.01,000.00,018.7,018.0,000.0,027.1,020.0,11.3,0002.5,0009.92,0015.43,0009.03
2024-01-19 16:55:00,SystemResetWarning,0836.1,5.01,000.00,018.7,018.0,000.0,027.1,020.0,11.3,0002.2,0009.91,0015.57,0009.02
2024-01-19 16:56:00,SystemResetWarning,0836.1,5.00,000.00,018.7,018.0,000.0,027.1,020.0,11.5,0002.6,0009.92,0015.80,0009.05
2024-01-19 16:57:00,SystemResetWarning,0836.1,5.00,000.00,018.7,018.0,000.0,027.1,020.0,11.3,0002.8,0009.96,0015.80,0009.06
2024-01-19 16:58:00,SystemResetWarning,0836.1,5.00,000.00,018.7,018.0,000.0,027.1,020.0,11.3,0002.7,0009.94,0015.42,0009.06
2024-01-19 16:59:00,SystemResetWarning,0836.2,4.99,000.00,018.7,018.0,000.0,027.1,020.0,11.3,0002.4,0009.95,0015.34,0009.07
